• In Uzbekistan
  • List of Countries
  • For 7 days
  • Water Temperature
  • Weather Map
  • Weather Widgets
  • user-avatar
    Login

    Hourly Weather Newcastle

    Today, 21 October, Monday

    Time Temperature Precipitation Wind Pressure Humidity
    00:00 +7°C° 0 mm 4 mps 751 mmHg 86%
    01:00 +7°C° 0 mm 4 mps 750 mmHg 86%
    02:00 +7°C° 0 mm 4 mps 750 mmHg 85%
    03:00 +8°C° 0 mm 4 mps 750 mmHg 85%
    04:00 +7°C° 0 mm 4 mps 751 mmHg 86%
    05:00 +7°C° 0 mm 4 mps 751 mmHg 86%
    06:00 +6°C° 0 mm 4 mps 752 mmHg 87%
    07:00 +7°C° 0 mm 4 mps 752 mmHg 86%
    08:00 +7°C° 0 mm 4 mps 752 mmHg 86%
    09:00 +8°C° 0 mm 4 mps 752 mmHg 85%
    10:00 +8°C° 0 mm 4 mps 752 mmHg 82%
    11:00 +10°C° 0 mm 4 mps 753 mmHg 78%
    12:00 +11°C° 0 mm 4 mps 753 mmHg 75%
    13:00 +10°C° 0 mm 4 mps 753 mmHg 75%
    14:00 +10°C° 0 mm 3 mps 752 mmHg 75%
    15:00 +10°C° 0 mm 3 mps 752 mmHg 75%
    16:00 +10°C° 0 mm 3 mps 752 mmHg 75%
    17:00 +9°C° 0 mm 2 mps 752 mmHg 76%
    18:00 +9°C° 0 mm 2 mps 753 mmHg 76%
    19:00 +8°C° 0 mm 2 mps 753 mmHg 80%
    20:00 +7°C° 0 mm 2 mps 753 mmHg 85%
    21:00 +6°C° 0 mm 2 mps 753 mmHg 89%
    22:00 +5°C° 0 mm 2 mps 753 mmHg 90%
    23:00 +6°C° 0 mm 1 mps 753 mmHg 92%

    Tomorrow, 22 October, Tuesday

    Time Temperature Precipitation Wind Pressure Humidity
    00:00 +6°C° 0 mm 1 mps 753 mmHg 93%
    01:00 +6°C° 0 mm 1 mps 753 mmHg 93%
    02:00 +4°C° 0 mm 2 mps 753 mmHg 93%
    03:00 +4°C° 0 mm 2 mps 753 mmHg 93%
    04:00 +4°C° 0 mm 2 mps 753 mmHg 93%
    05:00 +4°C° 0 mm 2 mps 753 mmHg 93%
    06:00 +4°C° 0 mm 2 mps 753 mmHg 93%
    07:00 +5°C° 0 mm 2 mps 753 mmHg 91%
    08:00 +5°C° 0 mm 3 mps 753 mmHg 88%
    09:00 +7°C° 0 mm 3 mps 753 mmHg 85%
    10:00 +8°C° 0 mm 3 mps 753 mmHg 82%
    11:00 +8°C° 0 mm 4 mps 753 mmHg 80%
    12:00 +10°C° 0 mm 4 mps 753 mmHg 77%
    13:00 +10°C° 0 mm 4 mps 753 mmHg 77%
    14:00 +11°C° 0 mm 4 mps 752 mmHg 76%
    15:00 +11°C° 0 mm 4 mps 752 mmHg 76%
    16:00 +8°C° 0 mm 4 mps 752 mmHg 79%
    17:00 +8°C° 0 mm 3 mps 752 mmHg 83%
    18:00 +7°C° 0 mm 3 mps 752 mmHg 87%
    19:00 +7°C° 0 mm 3 mps 752 mmHg 88%
    20:00 +5°C° 0 mm 3 mps 752 mmHg 89%
    21:00 +6°C° 0 mm 2 mps 752 mmHg 90%
    22:00 +5°C° 0 mm 2 mps 751 mmHg 91%
    23:00 +5°C° 0 mm 2 mps 751 mmHg 92%

    Day after tomorrow, 23 October, Wednesday

    Time Temperature Precipitation Wind Pressure Humidity
    00:00 +5°C° 0 mm 2 mps 751 mmHg 93%
    01:00 +5°C° 0 mm 2 mps 750 mmHg 93%
    02:00 +4°C° 0 mm 3 mps 750 mmHg 94%
    03:00 +3°C° 0 mm 3 mps 749 mmHg 94%
    04:00 +3°C° 0 mm 3 mps 749 mmHg 95%
    05:00 +4°C° 0 mm 2 mps 748 mmHg 95%
    06:00 +4°C° 0 mm 2 mps 748 mmHg 95%
    07:00 +4°C° 0 mm 3 mps 747 mmHg 94%
    08:00 +5°C° 0 mm 3 mps 747 mmHg 92%
    09:00 +7°C° 0 mm 3 mps 747 mmHg 90%
    10:00 +8°C° 0 mm 4 mps 746 mmHg 87%
    11:00 +9°C° 0 mm 5 mps 746 mmHg 83%
    12:00 +10°C° 0 mm 5 mps 746 mmHg 79%
    13:00 +10°C° 0 mm 5 mps 745 mmHg 80%
    14:00 +12°C° 0 mm 5 mps 744 mmHg 81%
    15:00 +12°C° 0 mm 5 mps 743 mmHg 82%
    16:00 +11°C° 0 mm 4 mps 743 mmHg 85%
    17:00 +10°C° 0 mm 3 mps 742 mmHg 88%
    18:00 +8°C° 0 mm 3 mps 742 mmHg 91%
    19:00 +8°C° 0 mm 3 mps 742 mmHg 93%
    20:00 +8°C° 0 mm 3 mps 741 mmHg 94%
    21:00 +8°C° 0 mm 3 mps 741 mmHg 95%
    22:00 +8°C° 0 mm 3 mps 741 mmHg 95%
    23:00 +8°C° 0 mm 3 mps 740 mmHg 95%

    24 October, Thursday

    Time Temperature Precipitation Wind Pressure Humidity
    00:00 +8°C° 0 mm 3 mps 740 mmHg 95%
    01:00 +8°C° 0 mm 3 mps 740 mmHg 94%
    02:00 +8°C° 0 mm 2 mps 739 mmHg 94%
    03:00 +8°C° 0 mm 2 mps 739 mmHg 93%
    04:00 +8°C° 0 mm 3 mps 739 mmHg 92%
    05:00 +8°C° 0 mm 3 mps 739 mmHg 91%
    06:00 +8°C° 0 mm 3 mps 739 mmHg 90%
    07:00 +9°C° 0 mm 3 mps 739 mmHg 90%
    08:00 +9°C° 0 mm 3 mps 739 mmHg 89%
    09:00 +9°C° 0 mm 2 mps 739 mmHg 89%
    10:00 +10°C° 0 mm 2 mps 739 mmHg 87%
    11:00 +10°C° 0 mm 3 mps 739 mmHg 85%
    12:00 +11°C° 0 mm 3 mps 739 mmHg 83%
    13:00 +11°C° 0 mm 3 mps 739 mmHg 81%
    14:00 +11°C° 0 mm 3 mps 738 mmHg 78%
    15:00 +12°C° 0 mm 4 mps 738 mmHg 76%
    16:00 +11°C° 0.1 mm 4 mps 739 mmHg 79%
    17:00 +10°C° 0.1 mm 4 mps 739 mmHg 82%
    18:00 +8°C° 0.1 mm 5 mps 739 mmHg 84%
    19:00 +8°C° 0 mm 5 mps 739 mmHg 84%
    20:00 +7°C° 0 mm 5 mps 740 mmHg 84%
    21:00 +6°C° 0 mm 5 mps 740 mmHg 84%
    22:00 +6°C° 0 mm 5 mps 741 mmHg 83%
    23:00 +6°C° 0 mm 5 mps 741 mmHg 83%

    25 October, Friday

    Time Temperature Precipitation Wind Pressure Humidity
    00:00 +6°C° 0 mm 5 mps 742 mmHg 82%
    01:00 +5°C° 0 mm 5 mps 742 mmHg 80%
    02:00 +5°C° 0 mm 5 mps 743 mmHg 78%
    03:00 +3°C° 0 mm 5 mps 744 mmHg 77%
    04:00 +3°C° 0 mm 5 mps 744 mmHg 77%
    05:00 +3°C° 0 mm 5 mps 745 mmHg 78%
    06:00 +4°C° 0 mm 4 mps 746 mmHg 79%
    07:00 +4°C° 0 mm 4 mps 746 mmHg 79%
    08:00 +5°C° 0 mm 4 mps 747 mmHg 78%
    09:00 +5°C° 0 mm 3 mps 747 mmHg 78%
    10:00 +7°C° 0.2 mm 3 mps 747 mmHg 79%
    11:00 +7°C° 0.2 mm 3 mps 746 mmHg 80%
    12:00 +7°C° 0.2 mm 3 mps 746 mmHg 81%
    13:00 +6°C° 2.3 mm 5 mps 744 mmHg 86%
    14:00 +5°C° 2.3 mm 6 mps 742 mmHg 90%
    15:00 +5°C° 2.3 mm 7 mps 741 mmHg 95%
    16:00 +7°C° 2.9 mm 9 mps 739 mmHg 94%
    17:00 +9°C° 2.9 mm 11 mps 737 mmHg 93%
    18:00 +13°C° 2.9 mm 13 mps 735 mmHg 91%
    19:00 +10°C° 2.4 mm 12 mps 736 mmHg 91%
    20:00 +8°C° 2.4 mm 11 mps 736 mmHg 91%
    21:00 +6°C° 2.4 mm 10 mps 737 mmHg 92%
    22:00 +5°C° 0.4 mm 9 mps 739 mmHg 90%
    23:00 +4°C° 0.4 mm 8 mps 741 mmHg 88%

    26 October, Saturday

    Time Temperature Precipitation Wind Pressure Humidity
    00:00 +3°C° 0.4 mm 7 mps 742 mmHg 87%
    01:00 +2°C° 0 mm 6 mps 744 mmHg 87%
    02:00 +2°C° 0 mm 5 mps 745 mmHg 87%
    03:00 +1°C° 0 mm 4 mps 746 mmHg 87%
    04:00 +1°C° 0 mm 4 mps 747 mmHg 87%
    05:00 +1°C° 0 mm 4 mps 747 mmHg 87%
    06:00 0°C° 0 mm 4 mps 748 mmHg 88%
    07:00 +1°C° 0 mm 4 mps 749 mmHg 85%
    08:00 +3°C° 0 mm 3 mps 749 mmHg 83%
    09:00 +3°C° 0 mm 3 mps 750 mmHg 80%
    10:00 +4°C° 0 mm 3 mps 750 mmHg 77%
    11:00 +5°C° 0 mm 3 mps 751 mmHg 74%
    12:00 +7°C° 0 mm 3 mps 751 mmHg 71%
    13:00 +7°C° 0 mm 3 mps 751 mmHg 72%
    14:00 +7°C° 0 mm 2 mps 751 mmHg 74%
    15:00 +7°C° 0 mm 2 mps 751 mmHg 75%
    16:00 +7°C° 0 mm 2 mps 751 mmHg 76%
    17:00 +7°C° 0 mm 1 mps 752 mmHg 78%
    18:00 +7°C° 0 mm 1 mps 752 mmHg 79%
    19:00 +6°C° 0 mm 1 mps 752 mmHg 79%
    20:00 +6°C° 0 mm 1 mps 752 mmHg 80%
    21:00 +6°C° 0 mm 1 mps 752 mmHg 81%
    22:00 +6°C° 0 mm 1 mps 752 mmHg 82%
    23:00 +6°C° 0 mm 1 mps 752 mmHg 83%

    27 October, Sunday

    Time Temperature Precipitation Wind Pressure Humidity
    00:00 +5°C° 0 mm 0 mps 752 mmHg 84%
    01:00 +6°C° 0.2 mm 1 mps 752 mmHg 85%
    02:00 +6°C° 0.2 mm 1 mps 751 mmHg 86%
    03:00 +5°C° 0.2 mm 2 mps 751 mmHg 88%
    04:00 +3°C° 0.8 mm 3 mps 751 mmHg 90%
    05:00 +3°C° 0.8 mm 3 mps 751 mmHg 93%
    06:00 +3°C° 0.8 mm 4 mps 750 mmHg 95%
    07:00 +2°C° 0.8 mm 5 mps 750 mmHg 95%
    08:00 +2°C° 0.8 mm 5 mps 750 mmHg 94%
    09:00 +1°C° 0.8 mm 6 mps 750 mmHg 94%
    10:00 +2°C° 1.4 mm 6 mps 750 mmHg 94%
    11:00 +2°C° 1.4 mm 6 mps 749 mmHg 94%
    12:00 +3°C° 1.4 mm 5 mps 749 mmHg 95%
    13:00 +3°C° 1.2 mm 5 mps 749 mmHg 95%
    14:00 +3°C° 1.2 mm 5 mps 748 mmHg 95%
    15:00 +5°C° 1.2 mm 5 mps 748 mmHg 95%
    16:00 +5°C° 1.1 mm 5 mps 747 mmHg 95%
    17:00 +5°C° 1.1 mm 5 mps 747 mmHg 95%
    18:00 +6°C° 1.1 mm 5 mps 747 mmHg 96%
    19:00 +6°C° 1.4 mm 5 mps 747 mmHg 96%
    20:00 +6°C° 1.4 mm 5 mps 747 mmHg 96%
    21:00 +6°C° 1.4 mm 5 mps 746 mmHg 96%
    22:00 +7°C° 1.4 mm 5 mps 746 mmHg 96%
    23:00 +7°C° 1.4 mm 5 mps 745 mmHg 96%
    Show more